User: anonymous   Login
Location: Unspecified
(0.0000°N, 0.0000°E)
Time: 20:05:26
(UTC+00:00)
Language:

STARLINK-1727 - Orbit

View from above orbital plane
View from above orbital plane
View from above satellite
View from above satellite

Ground track
Ground track

The orbit is defined by the following mean orbital elements,

1 46335U          26145.62430308 +.00000000 +00000-0 +10176-2 0 00005
2 46335  53.0268 307.8997 0012911 287.2857  72.6764 16.12624063    06
Epoch (UTC): 25 May 2026 14:58:59
Eccentricity: 0.0012911
inclination: 53.0268°
perigee height: 231 km
apogee height: 248 km
right ascension of ascending node: 307.8997°
argument of perigee: 287.2857°
revolutions per day: 16.12624063
mean anomaly at epoch: 72.6764°

The dashed part of the orbit path shows where the satellite is in the earth's shadow,  

DLR